Location: Unspecified
(0.0000°N, 0.0000°E)
Time: 13:29:58
(UTC+00:00)

Tiros 1 - Visible Passes

Search period start: 21 February 2019 00:00
Search period end: 03 March 2019 00:00
Orbit: 630 x 664 km, 48.4° (Epoch: 21 February)

Date Brightness Start Highest point End Pass type
(mag) Time Alt. Az. Time Alt. Az. Time Alt. Az.
21 Feb 9.1 05:20:47 10° N 05:24:52 27° NE 05:28:55 10° ESE visible
21 Feb 9.8 19:17:52 10° WNW 19:19:55 13° NW 19:21:59 10° NNW visible
22 Feb 7.2 05:46:05 10° NW 05:50:53 89° WSW 05:55:41 10° SE visible
23 Feb 9.1 04:32:13 15° N 04:34:54 24° NE 04:38:46 10° ESE visible
24 Feb 7.2 04:58:10 25° NNW 05:00:56 81° NE 05:05:44 10° SE visible
25 Feb 9.6 03:46:23 19° ENE 03:46:23 19° ENE 03:48:36 10° E visible
25 Feb 8.1 05:24:07 17° WNW 05:26:58 30° SW 05:31:10 10° S visible
26 Feb 8.1 04:12:18 46° ESE 04:12:18 46° ESE 04:15:46 10° SE visible
27 Feb 8.3 04:38:08 30° SSW 04:38:08 30° SSW 04:41:21 10° SSE visible
28 Feb 9.4 05:03:53 10° SW 05:03:53 10° SW 05:04:17 10° SW visible
